Temperature
7 5 5 5 5 6 6 6 6 6 6 5 4 4 4 4 4 3 3 3 3 4 4 4 4 4 4 4 4 5 5 5 5 5 6 6 6 6 6 6 6 6 6 6
5 5 5 5 6 6 6 6 5 5 5 5 4 3 3 3 3 3 3 3 3 3 3 4 4 4 4 4 4 4 4 4 5 5 5 5 5 6 6 6 6 6 6 6
6 5 5 5 5 6 5 5 5 4 4 4 4 4 3 3 3 3 3 3 3 3 3 3 3 4 4 4 4 4 4 4 4 4 4 4 5 5 5 5 5 5 5 5
4 5 5 5 5 5 5 5 4 4 3 2 3 4 3 3 2 2 2 3 3 3 3 3 3 3 3 3 3 3 3 3 3 4 4 4 4 4 5 5 5 5 4 4
4 4 4 5 5 4 4 4 4 3 2 2 2 3 3 2 2 2 1 2 2 3 3 3 3 3 3 3 3 3 3 3 3 3 3 3 3 4 4 4 4 4 4 4
3 3 3 3 3 4 3 3 2 1 1 3 2 2 3 1 2 2 1 2 2 2 3 3 3 3 3 3 3 3 3 3 2 2 3 3 3 3 3 3 3 3 3 3
3 3 3 3 3 3 3 2 3 3 2 3 2 2 2 2 1 1 1 2 2 2 2 2 2 2 2 2 2 2 2 2 2 2 2 2 2 2 2 2 2 2 3 3
3 3 2 2 2 2 2 3 3 4 3 2 1 1 1 1 1 1 2 2 2 2 2 2 2 2 2 2 2 2 1 1 1 1 1 1 1 1 2 2 2 2 2 2
2 3 1 1 1 2 2 1 2 1 1 1 1 0 0 1 0 0 1 1 1 1 1 1 1 1 1 1 1 1 1 1 1 1 1 1 1 1 1 1 1 1 1 1
2 2 1 1 1 1 1 0 -0 1 2 2 2 1 1 1 -0 -1 -1 -0 1 1 1 1 1 1 1 1 1 1 1 0 0 0 0 0 0 0 0 0 0 1 1 1
1 1 0 -0 -0 0 0 0 -0 -1 -0 1 1 2 0 -0 -1 -1 -1 -0 0 0 0 0 0 0 -0 -0 -0 -0 -0 -0 -0 -1 -1 -1 -1 -1 -1 -0 -0 -0 -0 0
-0 -0 -0 -1 -1 -1 -1 -1 -1 0 -0 -1 -1 1 -0 -2 -2 -1 -1 -0 0 -0 0 -0 -0 -1 -1 -1 -1 -1 -1 -1 -1 -1 -1 -1 -1 -1 -1 -1 -1 -1 -1 -1
-1 -1 0 1 -0 -2 -2 -2 -2 -2 -2 -2 -1 1 -1 -2 -2 -1 -1 -1 -1 -1 -1 -1 -1 -1 -1 -2 -2 -2 -2 -2 -2 -2 -2 -2 -2 -2 -2 -2 -2 -1 -1 -1
0 -1 0 1 1 -1 -2 -2 -3 -2 -2 -2 -2 -0 -1 -2 -3 -2 -1 -1 -1 -1 -1 -1 -2 -2 -2 -2 -2 -2 -2 -2 -3 -3 -3 -3 -3 -3 -3 -2 -2 -2 -2 -2
-2 -2 -2 -2 -1 -2 -1 -2 -3 -3 -2 -2 -1 -2 -1 -2 -3 -2 -2 -2 -2 -2 -2 -2 -2 -2 -3 -3 -3 -3 -3 -3 -3 -3 -3 -3 -3 -3 -3 -3 -3 -3 -3 -3
-3 -3 -3 -2 -2 -2 -2 -2 -2 -3 -3 -3 -3 -2 -2 -2 -2 -2 -2 -3 -3 -2 -2 -3 -3 -3 -3 -3 -3 -3 -4 -4 -4 -4 -4 -4 -4 -4 -4 -4 -4 -4 -3 -3
-4 -3 -3 -2 -3 -2 -2 -2 -3 -4 -4 -4 -3 -2 -3 -4 -3 -3 -3 -3 -3 -3 -3 -3 -3 -3 -4 -4 -4 -4 -4 -4 -4 -4 -5 -5 -5 -5 -5 -5 -4 -4 -4 -4
-4 -4 -4 -3 -3 -2 -1 -3 -3 -3 -4 -4 -4 -4 -4 -3 -3 -2 -2 -3 -3 -3 -3 -3 -3 -4 -4 -4 -4 -4 -5 -5 -5 -5 -5 -5 -5 -5 -5 -5 -5 -5 -5 -5
-4 -4 -4 -4 -3 -3 -2 -3 -4 -4 -3 -4 -4 -4 -4 -3 -4 -3 -2 -3 -3 -3 -4 -4 -4 -4 -4 -5 -5 -5 -5 -5 -5 -5 -6 -6 -6 -6 -6 -6 -6 -6 -6 -5
-5 -5 -5 -5 -3 -3 -1 -3 -4 -3 -3 -4 -5 -5 -4 -5 -5 -4 -3 -3 -4 -4 -4 -4 -4 -5 -5 -5 -5 -6 -6 -6 -6 -6 -6 -6 -7 -7 -7 -7 -7 -6 -6 -6
-5 -6 -5 -5 -5 -4 -4 -5 -4 -3 -2 -3 -4 -4 -4 -5 -4 -4 -4 -4 -4 -4 -5 -5 -5 -5 -5 -6 -6 -6 -6 -6 -7 -7 -7 -7 -7 -7 -7 -7 -7 -7 -7 -7
-6 -6 -6 -6 -5 -4 -5 -5 -5 -3 -3 -3 -3 -4 -4 -4 -4 -5 -5 -5 -5 -5 -5 -5 -6 -6 -6 -6 -7 -7 -7 -7 -7 -7 -7 -7 -7 -8 -8 -8 -8 -8 -8 -8
-7 -6 -6 -6 -4 -4 -5 -4 -3 -3 -3 -3 -4 -4 -4 -5 -5 -5 -5 -6 -6 -6 -6 -6 -6 -6 -7 -7 -7 -7 -7 -7 -8 -8 -8 -8 -8 -8 -8 -9 -9 -9 -9 -9
-7 -7 -7 -7 -6 -5 -5 -4 -4 -4 -4 -4 -4 -5 -5 -5 -6 -6 -6 -6 -7 -7 -7 -7 -7 -7 -7 -7 -7 -8 -8 -8 -8 -8 -8 -9 -8 -9 -9 -9 -9 -9 -9 -9
-7 -8 -8 -8 -7 -6 -4 -4 -4 -4 -5 -5 -5 -5 -6 -6 -6 -7 -7 -7 -7 -7 -7 -8 -8 -8 -8 -8 -8 -8 -8 -9 -9 -9 -9 -9 -9 -9 -9 -9 -10 -10 -10 -10
-8 -8 -7 -6 -6 -6 -5 -4 -4 -5 -5 -5 -5 -6 -6 -6 -7 -7 -7 -7 -8 -8 -8 -8 -8 -8 -8 -8 -8 -9 -9 -9 -9 -9 -9 -9 -9 -10 -10 -10 -10 -10 -10 -10
Wind_Speed
3 4 2 5 5 3 4 4 5 5 2 3 7 9 7 5 4 5 4 4 5 5 4 2 2 3 2 2 2 2 1 2 1 1 1 1 2 2 1 2 2 2 2 2
4 1 5 3 2 2 2 3 4 4 2 3 5 9 7 5 5 5 5 5 5 3 2 2 2 1 2 3 3 2 2 2 2 2 2 1 2 2 2 2 2 2 3 3
4 3 2 1 1 2 4 5 5 4 4 2 3 6 4 2 2 2 3 3 3 4 4 3 2 2 2 3 3 3 2 1 1 1 0 1 1 1 1 2 2 3 3 4
1 2 1 1 2 2 5 4 4 2 1 4 0 5 6 3 3 3 4 3 4 4 4 3 3 3 3 4 3 2 2 1 1 1 1 2 1 2 3 2 3 4 4 4
2 1 0 2 3 2 3 1 2 2 2 3 2 3 7 1 4 5 5 4 4 4 4 4 4 5 4 3 2 2 2 1 1 1 2 2 2 3 2 2 3 4 4 4
1 1 0 1 2 1 0 2 3 3 2 3 5 5 6 4 5 4 4 5 5 4 4 4 3 3 2 2 1 1 1 2 1 1 1 2 3 3 3 3 3 3 3 3
3 2 1 1 2 2 3 3 3 4 2 6 2 4 7 6 3 4 4 5 5 4 3 3 3 3 2 2 2 1 1 2 2 2 2 3 4 4 4 4 4 4 3 3
1 5 2 0 2 3 3 4 4 4 5 5 2 6 6 4 2 2 3 3 2 2 2 3 3 3 3 3 2 1 2 3 3 2 3 3 4 3 3 4 4 4 4 4
3 4 1 1 1 2 2 3 2 3 1 3 5 6 7 2 3 2 2 1 2 2 2 3 3 3 3 3 3 3 2 3 3 3 4 4 4 4 4 4 4 4 4 5
3 3 3 2 1 1 1 3 3 3 2 5 6 5 5 4 4 4 3 3 3 3 2 3 3 3 3 3 2 2 2 3 3 3 3 3 4 4 4 4 4 5 5 6
2 3 3 2 3 4 2 2 2 2 3 3 5 6 4 4 4 4 4 4 4 3 3 3 3 3 3 2 1 2 2 2 3 3 3 3 4 4 4 4 4 5 5 6
2 3 3 5 3 1 3 4 5 3 4 4 3 6 2 2 3 3 4 4 4 3 3 3 3 2 2 3 2 2 2 3 3 3 3 4 4 4 4 4 5 5 5 6
2 3 1 4 2 2 2 2 3 3 2 4 5 7 2 2 3 3 4 5 4 4 3 3 2 2 2 2 2 3 3 3 4 3 3 4 4 5 5 6 6 5 5 6
2 4 6 8 6 4 4 4 4 4 4 5 8 9 7 5 5 5 5 5 4 4 3 2 2 2 2 3 3 3 3 3 3 3 3 4 5 5 6 6 6 6 6 6
2 4 6 7 6 4 6 8 8 9 9 9 8 9 11 8 7 6 5 4 4 4 3 2 2 2 3 3 3 4 4 4 4 4 4 5 6 6 6 6 6 6 6 7
2 3 2 5 5 5 7 10 10 10 8 10 9 12 10 7 4 4 4 4 4 4 4 3 3 3 3 3 4 4 4 5 4 4 5 6 6 6 6 6 6 6 6 6
3 3 2 5 4 3 8 9 9 6 7 7 11 11 6 4 5 6 5 5 5 5 4 4 4 4 4 4 3 4 5 5 5 5 6 6 6 6 7 7 7 7 7 6
5 4 2 2 2 6 7 2 6 7 7 8 8 8 6 7 6 6 5 6 5 4 4 4 4 4 4 3 3 4 4 4 5 5 6 6 6 7 7 7 7 7 6 6
4 5 3 2 4 8 7 3 4 6 7 8 10 10 7 5 5 5 4 3 4 4 4 4 4 4 3 3 3 3 4 4 5 6 7 7 6 7 7 7 7 7 7 7
2 3 3 3 3 6 7 3 1 3 5 4 5 7 5 1 4 6 3 3 4 4 3 3 3 2 3 3 3 3 4 4 6 7 7 7 6 7 7 8 8 7 7 7
1 2 4 5 6 8 6 2 3 3 5 2 3 5 4 4 6 5 5 5 4 4 4 3 2 2 3 3 2 3 4 5 7 7 7 7 6 7 7 7 7 6 6 6
6 5 5 4 5 8 2 4 5 6 2 2 3 4 4 6 5 5 4 4 4 3 3 2 2 3 3 2 2 3 5 6 6 6 6 7 7 6 6 6 6 6 6 6
6 7 5 8 8 4 4 5 4 2 3 4 3 5 5 5 5 5 4 4 3 3 3 2 2 3 3 3 2 3 5 5 5 6 6 6 7 6 6 6 6 6 5 5
4 2 3 5 7 5 4 5 4 4 5 5 5 5 4 5 5 4 4 4 3 3 3 3 2 3 4 4 4 4 5 5 5 5 6 6 6 6 6 5 5 5 5 5
5 4 3 6 7 6 6 6 7 6 5 5 5 4 4 5 4 4 4 4 4 4 3 3 2 3 5 5 5 5 5 4 4 5 5 5 5 5 5 5 5 6 5 5
3 5 5 7 6 5 6 5 4 5 5 5 5 4 3 3 4 3 4 4 3 4 3 3 4 4 4 4 5 6 5 4 4 5 5 4 4 5 5 5 6 8 8 10
Wind_Direction
49 75 170 213 204 196 179 204 245 252 247 225 239 256 266 242 231 230 229 229 232 237 253 246 231 214 203 209 212 220 231 249 237 258 246 261 274 267 270 258 238 235 228 237
51 250 231 233 233 219 210 241 261 285 310 248 267 269 270 236 224 216 214 222 229 251 280 264 245 230 212 211 221 231 232 235 227 230 227 244 269 261 267 270 268 254 246 242
177 229 237 198 262 216 229 223 238 260 324 320 311 294 272 262 219 227 223 219 219 221 231 240 243 249 249 236 230 232 233 237 245 240 220 326 344 326 294 287 289 282 263 251
192 274 265 192 230 204 243 232 235 242 321 284 235 282 279 264 273 261 256 251 239 240 235 237 238 250 250 247 239 234 234 238 241 171 184 192 231 252 263 264 275 286 268 260
249 296 190 217 238 210 229 267 245 238 203 289 262 231 283 306 270 266 256 249 248 243 232 231 234 237 247 253 242 235 238 257 269 217 205 208 257 257 272 281 283 287 282 266
281 319 88 254 314 240 73 41 43 64 95 266 235 199 276 249 238 265 249 244 246 246 245 246 248 252 267 290 289 271 255 278 277 257 240 233 260 268 269 270 269 273 280 280
316 306 334 36 29 16 62 82 15 351 342 252 219 202 251 259 241 232 238 238 239 242 244 265 267 260 265 274 278 286 281 298 291 266 257 256 260 250 246 256 254 263 273 281
275 285 264 326 187 203 212 155 170 221 243 277 285 234 251 268 285 277 252 242 242 247 249 267 266 249 246 251 263 274 275 293 299 283 273 268 262 254 257 257 255 256 259 269
199 255 331 350 322 157 159 200 193 160 240 269 264 277 297 304 322 322 309 298 273 269 267 278 290 282 262 253 248 247 259 289 298 292 292 289 278 268 265 268 269 267 268 272
170 251 290 318 8 356 144 153 109 143 215 265 279 265 253 270 273 289 295 286 284 289 287 291 297 297 285 266 263 268 265 272 291 296 292 298 289 275 272 273 272 271 273 270
153 192 296 337 202 208 149 149 156 166 187 204 270 270 231 221 239 246 264 275 272 278 278 284 295 298 301 312 306 300 300 304 306 304 302 307 301 293 289 277 272 274 278 274
167 151 255 252 253 237 180 185 161 185 239 212 234 269 286 227 265 243 259 278 286 288 290 285 292 308 326 327 326 317 307 305 303 304 308 308 309 303 291 284 280 279 277 273
149 140 323 329 323 345 254 218 194 167 162 194 220 265 325 340 322 298 283 290 299 300 303 307 309 315 321 321 320 318 312 307 311 316 316 317 312 305 292 284 283 281 276 275
125 180 202 225 236 202 237 236 196 174 204 230 234 259 282 295 300 300 291 286 287 284 286 298 311 312 316 315 310 310 313 316 321 322 316 311 304 297 294 290 285 282 278 275
115 230 239 250 250 225 236 237 209 208 212 221 247 254 266 269 270 278 279 286 288 292 296 295 299 303 315 318 316 317 318 322 324 322 315 308 306 306 303 301 293 287 285 282
156 226 260 277 262 244 261 253 229 224 227 236 259 269 266 277 277 284 278 279 285 286 286 291 299 302 303 305 310 318 317 316 322 319 312 313 316 314 310 306 302 297 291 287
186 180 217 269 294 327 273 242 212 213 218 207 234 251 271 288 277 268 265 268 266 266 273 280 285 280 284 288 292 298 303 314 320 316 314 317 316 314 312 310 310 305 299 297
173 172 193 267 358 249 251 216 188 207 234 221 236 259 263 258 272 270 248 246 259 265 268 275 281 283 287 290 298 302 309 316 318 318 318 317 316 313 312 310 307 304 300 296
184 172 183 206 250 273 285 246 181 200 261 235 234 254 263 280 308 290 254 229 234 247 258 266 264 267 281 292 300 309 313 316 316 314 313 313 312 312 312 310 307 304 302 299
88 138 168 192 231 254 263 272 212 134 278 255 215 244 263 299 301 281 279 271 261 264 267 272 278 287 287 295 301 303 305 311 307 305 306 307 307 306 306 305 305 304 302 300
145 176 202 214 237 263 272 267 114 163 256 257 214 236 237 231 243 273 293 287 275 272 277 281 275 278 277 286 295 295 299 297 298 302 304 307 308 305 301 303 304 304 303 303
184 186 201 184 218 256 234 138 185 232 287 264 252 253 255 261 273 282 289 290 291 289 289 283 280 290 292 285 290 297 298 301 305 306 308 309 310 310 313 313 312 310 305 303
202 201 197 196 218 256 183 210 248 276 268 269 264 269 267 272 278 287 293 291 294 293 297 293 280 300 308 299 283 285 296 307 311 313 312 311 314 315 314 313 313 314 310 305
255 238 214 248 263 264 259 272 284 269 269 277 274 273 265 268 276 281 289 296 300 304 302 301 305 304 303 303 300 286 294 304 308 308 310 312 314 316 316 313 310 309 308 304
232 181 223 255 278 298 281 262 270 281 282 283 281 266 257 261 272 269 277 284 287 296 299 293 281 280 288 299 300 301 302 305 308 306 308 311 312 309 311 309 303 304 295 299
200 194 207 246 250 239 268 279 274 271 273 270 275 282 272 248 255 263 269 273 275 282 287 288 283 285 290 296 298 300 300 296 299 308 309 309 307 307 309 310 309 305 303 308
Height
1512 1517 1520 1519 1518 1518 1519 1520 1521 1518 1516 1518 1517 1514 1511 1510 1510 1509 1508 1508 1508 1508 1509 1508 1508 1508 1508 1508 1508 1508 1508 1508 1508 1508 1508 1508 1509 1509 1510 1510 1511 1512 1512 1513
1517 1520 1517 1516 1517 1517 1518 1520 1520 1518 1517 1517 1517 1513 1508 1507 1506 1505 1505 1505 1505 1506 1505 1505 1505 1505 1505 1505 1505 1505 1505 1505 1505 1505 1505 1505 1506 1505 1506 1507 1507 1508 1508 1509
1516 1517 1515 1517 1517 1517 1518 1520 1520 1520 1518 1517 1517 1512 1507 1504 1504 1504 1504 1503 1503 1503 1503 1502 1502 1502 1502 1502 1502 1502 1502 1502 1502 1502 1502 1502 1502 1502 1503 1503 1504 1504 1504 1505
1517 1515 1515 1516 1516 1516 1517 1516 1517 1519 1522 1524 1521 1518 1505 1504 1503 1502 1501 1501 1500 1501 1501 1500 1500 1499 1499 1499 1500 1500 1500 1500 1499 1499 1499 1499 1498 1498 1498 1499 1500 1500 1500 1501
1517 1516 1516 1516 1515 1516 1515 1515 1517 1518 1522 1525 1523 1523 1508 1505 1503 1500 1499 1498 1498 1498 1498 1498 1498 1498 1498 1497 1497 1497 1497 1497 1497 1496 1496 1496 1495 1495 1495 1495 1496 1496 1496 1496
1518 1517 1516 1516 1516 1515 1516 1517 1519 1522 1525 1524 1519 1522 1509 1506 1500 1498 1497 1496 1496 1496 1496 1496 1496 1496 1495 1495 1495 1494 1494 1494 1494 1493 1493 1492 1492 1492 1491 1491 1491 1491 1492 1491
1519 1518 1516 1516 1516 1517 1518 1521 1525 1524 1528 1520 1516 1517 1509 1499 1497 1496 1495 1494 1494 1494 1494 1494 1493 1492 1492 1492 1492 1491 1491 1490 1490 1490 1490 1489 1489 1489 1488 1487 1487 1487 1487 1487
1520 1520 1518 1517 1517 1519 1519 1519 1523 1522 1521 1519 1517 1514 1503 1497 1495 1494 1493 1493 1493 1492 1492 1491 1491 1491 1490 1489 1489 1488 1488 1488 1487 1487 1487 1486 1486 1485 1484 1484 1483 1482 1482 1482
1521 1519 1518 1517 1517 1517 1518 1521 1520 1525 1527 1526 1517 1513 1502 1495 1494 1494 1493 1492 1491 1491 1490 1490 1489 1489 1488 1487 1487 1486 1486 1485 1485 1484 1483 1482 1482 1481 1480 1480 1479 1479 1479 1478
1518 1521 1520 1519 1518 1518 1518 1520 1525 1526 1523 1518 1513 1511 1504 1497 1496 1494 1493 1491 1490 1490 1489 1488 1488 1487 1486 1486 1485 1484 1484 1483 1482 1481 1480 1480 1479 1478 1476 1475 1475 1474 1474 1475
1518 1522 1523 1521 1521 1519 1520 1522 1522 1525 1525 1521 1516 1506 1497 1496 1494 1494 1493 1491 1490 1489 1488 1487 1486 1485 1484 1483 1483 1482 1481 1481 1480 1479 1477 1476 1475 1474 1472 1471 1470 1470 1469 1469
1518 1522 1523 1521 1519 1518 1518 1519 1522 1522 1524 1527 1523 1508 1494 1493 1492 1492 1491 1490 1489 1488 1487 1486 1485 1484 1482 1481 1480 1479 1479 1478 1476 1475 1473 1472 1471 1469 1468 1466 1466 1465 1465 1464
1517 1521 1522 1518 1521 1521 1520 1519 1520 1520 1522 1525 1520 1504 1494 1493 1492 1491 1490 1489 1487 1486 1485 1484 1483 1482 1480 1479 1478 1477 1476 1475 1473 1472 1470 1468 1467 1465 1463 1462 1461 1460 1460 1459
1514 1518 1517 1513 1510 1515 1518 1517 1518 1519 1520 1519 1512 1500 1495 1493 1492 1490 1489 1487 1486 1484 1483 1482 1480 1479 1478 1477 1476 1475 1473 1472 1470 1468 1466 1465 1463 1461 1459 1458 1456 1455 1454 1453
1515 1517 1515 1512 1510 1511 1510 1510 1513 1513 1510 1509 1501 1499 1492 1491 1490 1488 1487 1485 1484 1482 1480 1479 1478 1477 1476 1475 1474 1472 1470 1469 1467 1465 1463 1461 1459 1457 1455 1453 1451 1450 1449 1447
1515 1516 1516 1513 1508 1508 1506 1503 1505 1506 1506 1504 1501 1496 1488 1488 1487 1486 1484 1483 1481 1479 1478 1477 1476 1475 1473 1472 1471 1469 1467 1465 1463 1461 1459 1456 1454 1452 1450 1448 1446 1444 1443 1441
1514 1516 1516 1512 1510 1507 1503 1496 1498 1500 1499 1499 1496 1489 1484 1485 1484 1482 1481 1480 1478 1477 1476 1474 1473 1472 1471 1469 1467 1465 1464 1462 1460 1457 1455 1452 1450 1448 1445 1443 1441 1438 1437 1435
1512 1514 1515 1514 1512 1508 1492 1489 1490 1492 1491 1491 1487 1483 1482 1481 1480 1479 1478 1477 1475 1474 1473 1471 1470 1469 1468 1466 1464 1463 1461 1459 1457 1454 1451 1449 1446 1443 1441 1438 1436 1433 1431 1429
1507 1510 1514 1515 1513 1503 1491 1487 1488 1490 1487 1483 1483 1480 1479 1478 1477 1474 1474 1473 1472 1471 1470 1469 1468 1466 1464 1463 1461 1459 1457 1455 1453 1451 1448 1445 1442 1439 1437 1434 1431 1428 1426 1423
1507 1508 1513 1515 1510 1502 1487 1485 1484 1487 1486 1478 1478 1477 1477 1477 1478 1473 1470 1470 1468 1467 1466 1465 1464 1463 1461 1459 1458 1456 1454 1451 1449 1447 1444 1441 1439 1436 1433 1430 1427 1424 1421 1418
1510 1511 1512 1512 1510 1497 1486 1484 1485 1489 1482 1476 1475 1474 1474 1474 1473 1470 1467 1466 1465 1464 1463 1462 1460 1459 1457 1456 1454 1452 1450 1448 1446 1443 1441 1438 1435 1432 1429 1426 1423 1420 1417 1415
1505 1508 1510 1510 1509 1497 1483 1484 1485 1479 1475 1474 1473 1472 1471 1469 1468 1466 1464 1462 1461 1459 1458 1457 1456 1455 1453 1452 1450 1448 1446 1445 1442 1440 1437 1434 1431 1428 1425 1422 1419 1417 1414 1411
1499 1496 1495 1495 1489 1481 1479 1477 1476 1475 1473 1472 1471 1470 1469 1466 1464 1463 1461 1459 1458 1456 1455 1453 1452 1451 1450 1448 1447 1444 1443 1441 1438 1436 1433 1430 1427 1425 1422 1419 1416 1413 1410 1407
1493 1491 1490 1489 1481 1477 1476 1475 1473 1473 1471 1470 1468 1467 1465 1463 1461 1459 1458 1457 1455 1453 1452 1450 1449 1447 1446 1445 1443 1441 1439 1437 1434 1432 1429 1427 1424 1421 1418 1416 1413 1410 1407 1405
1487 1488 1488 1485 1478 1474 1471 1471 1470 1469 1468 1466 1464 1463 1461 1459 1457 1456 1455 1453 1452 1450 1449 1447 1446 1444 1442 1441 1440 1438 1436 1433 1431 1428 1426 1423 1421 1418 1415 1412 1410 1407 1405 1403
1482 1483 1483 1477 1472 1472 1468 1467 1467 1465 1463 1462 1461 1459 1458 1456 1454 1453 1451 1451 1449 1448 1446 1445 1443 1441 1439 1438 1436 1434 1432 1430 1427 1425 1422 1420 1417 1415 1412 1409 1407 1404 1402 1400